Torna al catalogo

COSMOS 2572

AttivoMilitareSSO
NORAD 58435·PAYLOAD·🇷🇺 Russia

Lanciato Nov 25, 2023 da Plesetsk Cosmodrome

Loading…

Prossimi Passaggi (prossime 24 ore)

TLE

AggiornatoSource: Space-Track

Epoca: Sep 14, 2026, 12:57 UTC

1 58435U 23182A   26257.54002722  .00174687  14061-4  37051-3 0  9993
2 58435  96.6802   0.3295 0002483 214.2129 145.8991 15.98773512162661

Traccia COSMOS 2572 in tempo reale con AllMySat

Download on the App Store